Regional Weather Roundup
Issued by NWS

Home | Current Version | Previous Version | Graphics & Text | Print | Product List | Glossary On
Versions: 1 2 3 4 5 6 7 8 9 10 11 12 13 14 15 16 17 18 19 20 21 22 23 24 25 26 27 28 29 30 31 32 33 34 35 36 37 38 39 40 41 42 43 44 45 46 47 48 49 50
000
ASUS43 KDTX 042010
RWRMI
MICHIGAN HOURLY REGIONAL WEATHER ROUNDUP
NATIONAL WEATHER SERVICE DETROIT/PONTIAC MI
ISSUED BY NATIONAL WEATHER SERVICE GRAND RAPIDS MI
400 PM EDT FRI SEP 04 2015

NOTE: "FAIR" INDICATES FEW OR NO CLOUDS BELOW 12,000 FEET WITH NO
SIGNIFICANT WEATHER AND/OR OBSTRUCTION TO VISIBILITY.

MIZ047>049-052>055-059>063-066>070-074>076-081>083-042100-
SOUTHEAST LOWER MICHIGAN

CITY           SKY/WX    TMP DP  RH WIND       PRES   REMARKS
ADRIAN         MOSUNNY   84  66  54 W8        30.01F
ANN ARBOR      PTSUNNY   82  69  64 VRB5      30.01F
BAD AXE        CLOUDY    77  68  73 E6        30.04F
DETROIT CITY   PTSUNNY   81  71  71 S8        30.02S
DETROIT        MOSUNNY   84  70  62 W5        30.01F
FLINT          CLOUDY    80  67  64 SW7       30.02F
GROSSE ILE     MOSUNNY   79  72  78 CALM      30.00F
HILLSDALE      PTSUNNY   79  69  73 W6        30.04R
HOWELL         PTSUNNY   78  65  62 W5        30.03S

CITY           SKY/WX    TMP DP  RH WIND       PRES   REMARKS
JACKSON        MOSUNNY   79  66  64 NW6       30.02F
LANSING        PTSUNNY   78  66  66 NW6       30.02F
MASON          MOSUNNY   80  62  54 W6        30.01F
MONROE         MOSUNNY   81  72  76 NE3       29.99F
MT. CLEMENS    PTSUNNY   78  71  77 SE14      30.02S
PONTIAC        PTSUNNY   78  69  73 VRB3      30.02F
PORT HOPE        N/A     74  71  91 E10       30.04S
PORT HURON     PTSUNNY   79  70  73 S8        30.03S
TRI CITIES     CLOUDY    77  69  76 SE7       30.03S
YPSILANTI      SUNNY     87  69  54 W3        30.01F HX  91
$$
MIZ043>046-050>051-056>058-064>065-071>073-077>080-042100-
SOUTHWEST LOWER MICHIGAN

CITY           SKY/WX    TMP DP  RH WIND       PRES   REMARKS
BATTLE CREEK   PTSUNNY   79  66  64 W8        30.02F
BENTON HARBOR  MOSUNNY   74  67  78 NW8       30.03S
BIG RAPIDS     CLOUDY    74  68  83 E5        30.03S
COLDWATER      CLOUDY    77  67  71 N3        30.02S
HOLLAND        CLOUDY    76  66  71 W8        30.03F
GRAND RAPIDS   PTSUNNY   78  67  68 NW8       30.02F
KALAMAZOO      CLOUDY    81  65  58 NW6       30.01F
MARSHALL       PTSUNNY   79  67  66 SW7       30.01F
MOUNT PLEASANT CLOUDY    74  70  88 SE3       30.02S
MUSKEGON       CLOUDY    73  65  75 NW5       30.03S
STURGIS        CLOUDY    79  70  73 CALM      30.02S
$$
MIZ016>042-042100-
NORTHERN LOWER MICHIGAN

CITY           SKY/WX    TMP DP  RH WIND       PRES   REMARKS
ALPENA         SUNNY     78  67  68 E13       30.08R
BEAVER ISLAND  MOSUNNY   77  67  72 E9        30.07S
BELLAIRE       CLOUDY    74  68  82 N3        30.05S
CADILLAC       CLOUDY    71  68  89 CALM      30.06S
CHARLEVOIX     CLOUDY    74  68  83 E6        30.08F
GAYLORD        CLOUDY    73  68  84 SE5       30.08S
HOUGHTON LAKE  CLOUDY    71  67  87 SE9       30.07R
MANISTEE       CLOUDY    70  66  88 NW6       30.04F
OSCODA         CLOUDY    74  69  82 E7        30.05S HAZE
PELLSTON       LGT RAIN  75  68  78 NE10      30.07S
TRAVERSE CITY  CLOUDY    74  67  78 NE5       30.04S
LUDINGTON      CLOUDY    76  71  84 CALM      30.04S
$$
MIZ007>008-015-042100-
EASTERN UPPER MICHIGAN

CITY           SKY/WX    TMP DP  RH WIND       PRES   REMARKS
KINROSS        PTSUNNY   79  66  65 E15       30.10S
MACKINAC ISLAN PTSUNNY   68  65  88 E13G22    30.09S
NEWBERRY       MOSUNNY   81  66  60 SE12G20   30.08F
S. S. MARIE    MOSUNNY   79  67  66 SE12G17   30.10S
$$
MIZ004>006-011>014-085-042100-
CENTRAL UPPER MICHIGAN

CITY           SKY/WX    TMP DP  RH WIND       PRES   REMARKS
MANISTIQUE     CLOUDY    74  66  77 SE7       30.07S
ESCANABA       SUNNY     77  64  65 S8        30.04S
MENOMINEE      MOSUNNY   72  63  73 E14       30.04F
$$
MIZ001>003-009>011-084-042100-
WESTERN UPPER MICHIGAN

CITY           SKY/WX    TMP DP  RH WIND       PRES   REMARKS
IRON MOUNTAIN  MOSUNNY   82  65  56 SE7       30.05F
HOUGHTON       SUNNY     76  58  53 E12       30.06F
COPPER HARBOR    N/A     79  55  43 SE6       30.06S
IRONWOOD       SUNNY     82  64  54 S13       29.99S
$$

ABBREVIATIONS USED IN REMARKS
   TC - TEMPERATURE IN CELSIUS
  WCI - WIND CHILL INDEX
   HX - HEAT INDEX
  VSB - VISIBILITY



USA.gov is the U.S. government's official web portal to all federal, state and local government web resources and services.